Weather History for KI16 - September, 2012

Change the Weather History Date:

Saturday, September 8, 2012

  Actual Average (KBKW) Record (KBKW)
Temperature  
Mean Temperature 66 °F 66 °F  
Max Temperature 74 °F 76 °F 89 °F (1933)
Min Temperature 58 °F 56 °F 36 °F (1951)
Degree Days  
Heating Degree Days 0 2  
Month to date heating degree days 11  
Since 1 July heating degree days 32  
Cooling Degree Days 1 3  
Month to date cooling degree days 27  
Year to date cooling degree days 520  
Growing Degree Days 16 (Base 50)    
Moisture  
Dew Point 65 °F    
Average Humidity 98    
Maximum Humidity 100    
Minimum Humidity 91    
Precipitation  
Precipitation 0.00 in 0.10 in 1.55 in (2004)
Month to date precipitation 0.79  
Year to date precipitation 30.45  
Snow  
Snow 0.00 in - - ()
Month to date snowfall  
Since 1 September snowfall  
Snow Depth -    
Sea Level Pressure  
Sea Level Pressure 29.90 in    
Wind  
Wind Speed - (North)    
Max Wind Speed -    
Max Gust Speed -    
Visibility 6 miles    
Events Fog , Rain    
T = Trace of Precipitation, MM = Missing Value Source: NWS Daily Summary

Daily Weather History Graph

Daily Weather History Graph

Search for Another Location

Airport or City:

Trip Planner

Search our weather history database for the weather conditions in past years. The results will help you decide how hot, cold, wet, or windy it might be!

Date:

Astronomy

Sep. 08, 2012 Rise Set
Actual Time 7:02 AM EDT 7:44 PM EDT
Civil Twilight 6:36 AM EDT 8:10 PM EDT
Nautical Twilight 6:04 AM EDT 8:41 PM EDT
Astronomical Twilight 5:32 AM EDT 9:13 PM EDT
Moon No Moon Rise 2:34 PM EDT (9/8)
Length of Visible Light 13h 34m
Length of Day
12h 41m
Waning Gibbous, 49% of the Moon is Illuminated
Sep 8
Waning Gibbous
Sep 15
New
Sep 22
First Quarter
Sep 29
Full
Oct 8
Last Quarter

Hourly Weather History & Observations

Time (EDT) Temp. Dew Point Humidity Pressure Visibility Wind Dir Wind Speed Gust Speed Precip Events Conditions
12:15 AM 69.1 °F 69.1 °F 100% 29.92 in 5.0 mi North - - N/A   Clear
12:35 AM 69.1 °F 69.1 °F 100% 29.91 in 7.0 mi North - - N/A   Clear
12:55 AM 69.1 °F 69.1 °F 100% 29.91 in 7.0 mi North - - N/A   Clear
1:15 AM 68.5 °F 68.5 °F 100% 29.90 in 7.0 mi North - - N/A   Clear
1:35 AM 68.4 °F 68.4 °F 100% 29.89 in 5.0 mi North - - N/A   Clear
2:15 AM 68.2 °F 68.2 °F 100% 29.89 in 5.0 mi North - - N/A   Clear
2:55 AM 68.0 °F 68.0 °F 100% 29.88 in 5.0 mi North - - N/A   Clear
3:15 AM 68.0 °F 68.0 °F 100% 29.88 in 5.0 mi North - - N/A   Clear
3:35 AM 67.8 °F 67.8 °F 100% 29.87 in 5.0 mi North - - N/A   Clear
3:55 AM 67.5 °F 67.5 °F 100% 29.87 in 5.0 mi North - - N/A   Clear
4:15 AM 67.6 °F 67.6 °F 100% 29.86 in 5.0 mi North - - N/A   Clear
4:35 AM 67.5 °F 67.5 °F 100% 29.85 in 5.0 mi North - - N/A   Clear
4:55 AM 67.1 °F 67.1 °F 100% 29.85 in 4.0 mi North - - N/A   Clear
5:15 AM 67.1 °F 67.1 °F 100% 29.85 in 4.0 mi North - - N/A   Scattered Clouds
5:35 AM 67.1 °F 67.1 °F 100% 29.84 in 4.0 mi North - - N/A   Mostly Cloudy
5:55 AM 66.9 °F 66.9 °F 100% 29.83 in 5.0 mi North - - N/A   Mostly Cloudy
6:15 AM 66.9 °F 66.9 °F 100% 29.83 in 5.0 mi North - - N/A   Scattered Clouds
6:35 AM 66.6 °F 66.6 °F 100% 29.83 in 4.0 mi North - - N/A   Clear
6:55 AM 66.4 °F 66.4 °F 100% 29.83 in 4.0 mi North - - N/A   Clear
7:15 AM 66.6 °F 66.6 °F 100% 29.83 in 5.0 mi North - - N/A   Scattered Clouds
7:35 AM 67.3 °F 67.3 °F 100% 29.82 in 4.0 mi North - - N/A   Scattered Clouds
7:55 AM 67.6 °F 67.6 °F 100% 29.83 in 4.0 mi North - - N/A   Scattered Clouds
8:15 AM 68.4 °F 68.4 °F 100% 29.82 in 5.0 mi North - - N/A   Overcast
8:35 AM 69.4 °F 69.4 °F 100% 29.85 in 7.0 mi North - - N/A   Overcast
8:55 AM 69.1 °F 69.1 °F 100% 29.85 in 1.5 mi North - - N/A Rain Heavy Rain
9:15 AM 69.1 °F 69.1 °F 100% 29.86 in 7.0 mi North - - N/A   Mostly Cloudy
9:35 AM 69.6 °F 69.6 °F 100% 29.85 in 5.0 mi North - - N/A Rain Light Rain
9:55 AM 70.7 °F 70.5 °F 99% 29.85 in 10.0 mi North - - N/A   Mostly Cloudy
10:15 AM 70.9 °F 70.3 °F 98% 29.85 in 10.0 mi North - - N/A Rain Light Rain
10:35 AM 71.2 °F 70.3 °F 97% 29.85 in 10.0 mi North - - N/A   Overcast
10:55 AM 71.4 °F 70.5 °F 97% 29.84 in 7.0 mi North - - N/A   Light Drizzle
11:15 AM 71.8 °F 71.1 °F 98% 29.84 in 7.0 mi North - - N/A   Overcast
11:35 AM 72.0 °F 71.2 °F 98% 29.84 in 3.0 mi North - - N/A Rain Rain
11:55 AM 71.8 °F 71.1 °F 98% 29.84 in 10.0 mi North - - N/A   Light Drizzle
12:35 PM 74.3 °F 71.6 °F 91% 29.83 in 10.0 mi North - - N/A   Overcast
12:55 PM 69.8 °F 67.3 °F 92% 29.86 in 0.5 mi North - - N/A Rain Heavy Rain
1:15 PM 66.7 °F 65.1 °F 95% 29.87 in 4.0 mi North - - N/A Rain Light Rain
1:35 PM 66.9 °F 65.3 °F 95% 29.89 in 10.0 mi North - - N/A Rain Light Rain
1:55 PM 66.4 °F 64.4 °F 93% 29.91 in 10.0 mi North - - N/A Rain Light Rain
2:15 PM 67.1 °F 65.5 °F 95% 29.91 in 7.0 mi North - - N/A Rain Light Rain
2:35 PM 65.7 °F 64.2 °F 95% 29.92 in 10.0 mi North - - N/A Rain Light Rain
2:55 PM 65.7 °F 64.2 °F 95% 29.90 in 10.0 mi North - - N/A Rain Light Rain
3:15 PM 65.7 °F 64.0 °F 94% 29.90 in 10.0 mi North - - N/A   Overcast
3:35 PM 65.3 °F 63.9 °F 95% 29.91 in 10.0 mi North - - N/A   Overcast
3:55 PM 64.8 °F 63.0 °F 94% 29.93 in 10.0 mi North - - N/A   Light Drizzle
4:15 PM 63.9 °F 61.2 °F 91% 29.90 in 10.0 mi North - - N/A Rain Light Rain
4:35 PM 62.4 °F 61.0 °F 95% 29.94 in 7.0 mi North - - N/A Rain Light Rain
4:55 PM 62.1 °F 60.1 °F 93% 29.94 in 10.0 mi North - - N/A   Mostly Cloudy
5:15 PM 61.9 °F 59.9 °F 93% 29.90 in 10.0 mi North - - N/A   Scattered Clouds
5:35 PM 61.7 °F 59.9 °F 94% 29.92 in 10.0 mi North - - N/A   Scattered Clouds
5:55 PM 61.7 °F 59.9 °F 94% 29.94 in 10.0 mi North - - N/A   Scattered Clouds
6:15 PM 61.3 °F 59.2 °F 93% 29.94 in 10.0 mi North - - N/A   Clear
6:35 PM 61.5 °F 59.7 °F 94% 29.94 in 10.0 mi North - - N/A   Clear
6:55 PM 61.3 °F 60.1 °F 96% 29.95 in 10.0 mi North - - N/A   Clear
7:15 PM 61.0 °F 60.3 °F 97% 29.94 in 10.0 mi North - - N/A   Clear
7:35 PM 59.9 °F 59.4 °F 98% 29.95 in 10.0 mi North - - N/A   Clear
7:55 PM 59.4 °F 59.4 °F 100% 29.96 in 10.0 mi North - - N/A   Scattered Clouds
8:15 PM 58.6 °F 58.6 °F 100% 29.97 in 7.0 mi North - - N/A   Scattered Clouds
8:35 PM 58.5 °F 58.5 °F 100% 29.97 in 2.0 mi North - - N/A   Overcast
8:55 PM 58.6 °F 58.6 °F 100% 29.98 in 0.5 mi North - - N/A Fog Fog
9:15 PM 58.1 °F 58.1 °F 100% 29.98 in 2.0 mi North - - N/A   Overcast
9:35 PM 58.3 °F 58.3 °F 100% 29.98 in 2.0 mi North - - N/A   Overcast
9:55 PM 58.6 °F 58.6 °F 100% 30.00 in 0.5 mi North - - N/A Fog Fog
10:15 PM 58.5 °F 58.5 °F 100% 30.00 in 0.5 mi North - - N/A Fog Fog
10:35 PM 58.6 °F 58.6 °F 100% 30.01 in 1.2 mi North - - N/A   Overcast
10:55 PM 59.0 °F 59.0 °F 100% 30.02 in 5.0 mi North - - N/A   Overcast